Home   Weather   Haan   Past weeks

Flag for Germany Past Weather in Haan, North Rhine-Westphalia, Germany — Yesterday and Last 2 Weeks

Now
43 °F

Clear.


Feels Like: 37 °F
Forecast: 39 / 47 °F
Wind: 10 mph from South

Location: Duesseldorf

Current Time: Dec 8, 2016 at 7:26:54 pm

Latest Report: Dec 8, 2016 at 6:50 pm


Visibility: 10 mi

Pressure: 30.36 "Hg

Humidity: 71%

Dew Point: 34 °F

Location of HaanLocation

Past Weather in Haan — Graph

°F

Haan Temperature Yesterday

Maximum temperature yesterday: 43 °F (at 1:50 pm)
Minimum temperature yesterday: 34 °F (at 3:50 am)
Average temperature yesterday: 39 °F

High & Low Weather Summary for the Past Weeks

 TemperatureHumidityPressure
High52 °F (Nov 23, 6:20 pm)100% (Nov 26, 8:50 pm)30.60 "Hg (Nov 26, 8:50 pm)
Low18 °F (Dec 4, 7:50 am)45% (Nov 29, 2:50 pm)30.07 "Hg (Nov 23, 6:20 pm)
Average37 °F83%30.31 "Hg
* Reported Nov 23 6:20 pm — Dec 8 6:20 pm, Haan, Weather by CustomWeather, © 2016

Note: Actual official high and low records may vary slightly from our data, if they occured in-between our weather recording intervals... More about our weather records

Advertising

Haan Weather History for the Previous 24 Hours

Scroll right to see more
 ConditionsComfort  
Time TempWeatherWind HumidityBarometerVisibility
6:20 pm
Thu, Dec 8
43 °FClear.14 mph71%30.33 "Hg10 mi
5:50 pm43 °FClear.13 mph76%30.33 "Hg10 mi
5:20 pm43 °FClear.13 mph71%30.33 "Hg10 mi
4:50 pm45 °FClear.14 mph66%30.33 "Hg10 mi
4:20 pm45 °FSunny.10 mph66%30.36 "Hg10 mi
3:50 pm46 °FSunny.12 mph66%30.33 "Hg10 mi
3:20 pm46 °FSunny.10 mph62%30.33 "Hg10 mi
2:50 pm48 °FPassing clouds.12 mph58%30.36 "HgN/A
2:20 pm46 °FSunny.12 mph62%30.36 "Hg10 mi
1:50 pm46 °FSunny.12 mph62%30.36 "Hg10 mi
1:20 pm48 °FSunny.13 mph58%30.36 "Hg10 mi
12:50 pm46 °FSunny.14 mph62%30.36 "Hg10 mi
12:20 pm46 °FSunny.12 mph62%30.39 "Hg10 mi
11:50 am45 °FSunny.12 mph61%30.39 "Hg10 mi
11:20 am45 °FSunny.12 mph61%30.39 "Hg10 mi
10:50 am45 °FSunny.14 mph61%30.42 "Hg10 mi
10:20 am43 °FSunny.17 mph66%30.42 "Hg10 mi
9:50 am43 °FSunny.17 mph66%30.42 "Hg10 mi
9:20 am43 °FSunny.15 mph66%30.42 "Hg10 mi
8:50 am43 °FSunny.16 mph66%30.42 "Hg10 mi
8:20 am43 °FClear.16 mph71%30.42 "Hg10 mi
7:50 am43 °FClear.16 mph71%30.42 "Hg10 mi
7:20 am43 °FClear.17 mph71%30.42 "Hg10 mi
6:50 am43 °FClear.16 mph71%30.42 "Hg10 mi
6:20 am41 °FClear.16 mph76%30.42 "Hg10 mi
5:50 am41 °FClear.15 mph76%30.42 "Hg10 mi
5:20 am41 °FClear.15 mph76%30.42 "Hg10 mi
4:50 am39 °FClear.13 mph81%30.42 "Hg10 mi
4:20 am41 °FClear.15 mph76%30.42 "Hg10 mi
3:50 am39 °FClear.15 mph81%30.42 "Hg10 mi
3:20 am39 °FClear.15 mph81%30.42 "Hg10 mi
2:50 am39 °FClear.16 mph81%30.42 "Hg10 mi
2:20 am41 °FClear.15 mph76%30.42 "Hg10 mi
1:50 am41 °FClear.17 mph76%30.42 "Hg10 mi
1:20 am41 °FClear.13 mph76%30.45 "Hg10 mi
12:50 am41 °FClear.14 mph76%30.45 "Hg10 mi
12:20 am41 °FClear.16 mph76%30.45 "Hg10 mi
11:50 pm
Wed, Dec 7
41 °FClear.14 mph76%30.45 "Hg10 mi
11:20 pm43 °FClear.15 mph71%30.45 "Hg10 mi
10:50 pm41 °FClear.16 mph76%30.45 "Hg10 mi
10:20 pm41 °FClear.18 mph81%30.45 "Hg10 mi
9:50 pm43 °FClear.15 mph76%30.45 "Hg10 mi
9:20 pm43 °FClear.16 mph76%30.45 "Hg10 mi
8:50 pm43 °FClear.16 mph76%30.45 "Hg10 mi
8:20 pm43 °FClear.13 mph76%30.45 "Hg10 mi
7:50 pm43 °FClear.14 mph76%30.45 "Hg10 mi
7:20 pm43 °FClear.16 mph76%30.45 "Hg10 mi
Weather by CustomWeather, © 2016

See weather overviewHow to use our weather pages